Hourly Data Report for October 15, 2017

All times are specified in Local Standard Time (LST). Add 1 hour to adjust for Daylight Saving Time where and when it is observed.

POWELL RIVER
BRITISH COLUMBIA

49°50'04.400" N
124°29'48.500" W
125.00 m
1046392
71720
VOP

Download Data

Hourly Data (October 2017)
Hourly Data Report for October 15, 2017
Temp Definition
°C
Dew Point Temp Definition
°C
Rel Hum Definition
%
Wind Dir Definition
10's deg

Wind Spd Definition
km/h
Visibility Definition
km
Stn Press Definition
kPa
Hmdx Definition


Wind Chill Definition


Weather Definition


TIME
00:00 7.7 6.6 93 LegendMM LegendMM   101.54     LegendNANA
01:00 7.8 6.6 92 LegendMM LegendMM   101.52     LegendNANA
02:00 7.9 6.6 92 LegendMM LegendMM   101.46     LegendNANA
03:00 8.0 6.6 90 LegendMM LegendMM   101.42     LegendNANA
04:00 8.2 6.5 89 LegendMM LegendMM   101.35     LegendNANA
05:00 8.3 6.3 87 LegendMM LegendMM   101.32     LegendNANA
06:00 7.8 6.3 90 LegendMM LegendMM   101.30     LegendNANA
07:00 7.6 6.6 93 LegendMM LegendMM   101.27     LegendNANA
08:00 8.2 7.3 94 LegendMM LegendMM   101.25     LegendNANA
09:00 9.6 8.0 90 LegendMM LegendMM   101.20     LegendNANA
10:00 10.6 7.4 81 LegendMM LegendMM   101.17     LegendNANA
11:00 11.2 7.8 80 LegendMM LegendMM   101.15     LegendNANA
12:00 12.1 7.4 73 LegendMM LegendMM   101.08     LegendNANA
13:00 12.0 7.1 72 LegendMM LegendMM   101.03     LegendNANA
14:00 11.9 7.9 76 LegendMM LegendMM   101.00     LegendNANA
15:00 11.1 8.4 84 LegendMM LegendMM   101.01     LegendNANA
16:00 10.6 8.6 88 LegendMM LegendMM   100.92     LegendNANA
17:00 9.9 8.4 90 LegendMM LegendMM   100.88     LegendNANA
18:00 9.6 8.5 93 LegendMM LegendMM   100.89     LegendNANA
19:00 8.9 8.1 95 LegendMM LegendMM   100.85     LegendNANA
20:00 8.5 7.8 96 LegendMM LegendMM   100.83     LegendNANA
21:00 8.0 7.4 96 LegendMM LegendMM   100.80     LegendNANA
22:00 7.9 7.4 97 LegendMM LegendMM   100.77     LegendNANA
23:00 8.8 8.3 97 LegendMM LegendMM   100.76     LegendNANA

Notes on Data Quality.

Legend

  • E = Estimated
  • M = Missing
  • NA = Not Available
  • ‡ = Partner data that is not subject to review by the National Climate Archives
Date modified: